Regional Weather Roundup
Issued by NWS Newport/Morehead, NC

Current Version | Previous Version | Graphics & Text | Print | Product List | Glossary Off
Versions: 1 2 3 4 5 6 7 8 9 10 11 12 13 14 15 16 17 18 19 20 21 22 23 24 25 26 27 28 29 30 31 32 33 34 35 36 37 38 39 40 41 42 43 44 45 46 47 48 49 50

000
ASUS42 KMHX 250613
RWRMHX
WEATHER ROUNDUP FOR EASTERN NORTH CAROLINA
NATIONAL WEATHER SERVICE NEWPORT/MOREHEAD CITY NC
100 AM EST SAT FEB 25 2017

NOTE: "FAIR" INDICATES FEW OR NO CLOUDS BELOW 12,000 FEET
WITH NO SIGNIFICANT WEATHER AND/OR OBSTRUCTIONS TO VISIBILITY

NCZ015>017-031-032-045>047-102-103-250700-
NORTH COAST

CITY           SKY/WX    TMP DP  RH WIND       PRES   REMARKS
EDENTON          N/A     56  54  92 CALM      29.83F FOG
ELIZABETH CITY CLEAR     55  54  96 SE5       29.82F
KITTY HAWK     NOT AVBL
MANTEO         CLEAR     56  54  94 CALM      29.83F

$$

NCZ045>047-081-094-103-104-250700-
CENTRAL COAST

CITY           SKY/WX    TMP DP  RH WIND       PRES   REMARKS
FRISCO         CLEAR     63  59  87 E3        29.81S FOG

$$

NCZ095-097-098-100-101-250700-
SOUTHERN COAST

CITY           SKY/WX    TMP DP  RH WIND       PRES   REMARKS
BEAUFORT       CLEAR     57  57 100 CALM      29.81F FOG
CEDAR ISLAND   NOT AVBL
JACKSONVILLE   PTCLDY    55  55 100 CALM      29.82F
PINEY ISLAND   PTCLDY   N/A N/A N/A NW6       29.81
WILMINGTON     PTCLDY    55  55 100 CALM      29.83S


$$

NCZ011>013-027>030-043-044-078>080-089-090>093-098-250700-
COASTAL PLAIN

CITY           SKY/WX    TMP DP  RH WIND       PRES   REMARKS
AHOSKIE          N/A     56  55  98 CALM      29.83S
CLINTON        CLEAR     57  57 100 CALM      29.84S FOG
ELIZABETHTOWN  PTCLDY    57  57 100 CALM      29.83F
GOLDSBORO      PTCLDY    55  55 100 E3        29.81F FOG
GREENVILLE     PTCLDY    55  55 100 CALM      29.85S
HAVELOCK       PTCLDY    55  53  93 VRB1      29.83F
KENANSVILLE    NOT AVBL
KINSTON        PTCLDY    53  53  98 CALM      29.83F
NEW BERN       FOG       54  54 100 CALM      29.84S VSB 1/2
RICHLANDS      PTCLDY    52  51  97 CALM      29.83F
ROCKY MOUNT    CLEAR     57  57 100 S3        29.82F
WASHINGTON     PTCLDY    53  53  99 CALM      29.82F
WHITEVILLE     PTCLDY    56  55  94 CALM      29.83F

$$

AMZ130-135-150-152-154-156-158-170-250-252-270-ANZ085-086-088-633-658-670-250700-
MARINE OBSERVATIONS

STATION/POSITION TIME  TEMP    WIND        PRES    WAVE   SWELL
                       AIR SEA DIR/SP/G            HT/PER HT/PER
                 (UTC) (F)     (DEG/KT/KT) (MB)    (FT/S) (FT/S)
CHESAPEAKE LIGHT NOT AVBL
64 E VA BEACH    0550   57 54  110/  4/  6 1009.9    6/ 8   7/ 8
DUCK             0548          150/  4/  5 1009.5
2 E DUCK         0530      52                N/A     4/10   2/11
OREGON INLET     0542          100/  3/  4 1009.6
13E OREGON INLT  NOT AVBL
HATTERAS CG      0548           70/  4/  5 1009.0
DIAMOND BUOY     0550   71 76  110/ 12/ 16 1009.0    9/10   8/10
CAPE LOOKOUT     0600   65     340/  4/  4 1009.1
BEAUFORT LAB     0548           10/  4/  5 1008.7
30 SE NEW RVR IN 0508   68      80/  4/  8 1009.9
30 SE NEW RVR IN 0543      70                N/A     8/11   5/11
27 SE WRIGHTSVLE 0508   68 66   30/  2/  6 1009.1
5 SE WRIGHTSVLE  NOT AVBL
225 S CAPE HAT   0550   69 70  190/  6/  8 1007.4   10/10  10/10
41 SE CHARLESTON 0550   69 70  240/  4/  6 1010.1    8/10   8/10

$$




USA.gov is the U.S. government's official web portal to all federal, state and local government web resources and services.